Location: Augustenthal
(51.7167°N, 10.2833°E)
Time: 09:07:54
(UTC+00:00)

Timation 2 Rocket - Pass Details

Date: 18 May 2021
Orbit: 907 x 1074 km, 70.0° (Epoch: 15 June)

Event Time Altitude Azimuth Distance (km) Brightness Sun altitude
Rises 22:49:35 0° 327° (NNW) 3,555 8.1 -18.3°
Reaches altitude 10° 22:52:09 10° 332° (NNW) 2,604 7.3 -18.3°
Maximum altitude 22:58:02 55° 51° (NE) 1,083 4.4 -18.4°
Enters shadow 23:02:59 15° 126° (SE) 2,270 5.6 -18.5°
